Year,Month,Day,Hour,Minute,Value (Times are PST for temperature in C)
2017,05,22,00,00,14.70
2017,05,22,00,01,14.70
2017,05,22,00,02,14.70
2017,05,22,00,03,14.70
2017,05,22,00,04,14.60
2017,05,22,00,05,14.60
2017,05,22,00,06,14.50
2017,05,22,00,07,14.50
2017,05,22,00,08,14.40
2017,05,22,00,09,14.40
2017,05,22,00,10,14.40
2017,05,22,00,11,14.40
2017,05,22,00,12,14.40
2017,05,22,00,13,14.30
2017,05,22,00,14,14.30
2017,05,22,00,15,14.30
2017,05,22,00,16,14.30
2017,05,22,00,17,14.30
2017,05,22,00,18,14.20
2017,05,22,00,19,14.20
2017,05,22,00,20,14.20
2017,05,22,00,21,14.20
2017,05,22,00,22,14.10
2017,05,22,00,23,14.10
2017,05,22,00,24,14.10
2017,05,22,00,25,14.10
2017,05,22,00,26,14.10
2017,05,22,00,27,14.00
2017,05,22,00,28,14.00
2017,05,22,00,29,14.00
2017,05,22,00,30,14.00
2017,05,22,00,31,14.00
2017,05,22,00,32,14.00
2017,05,22,00,33,14.00
2017,05,22,00,34,14.00
2017,05,22,00,35,13.90
2017,05,22,00,36,13.90
2017,05,22,00,37,13.90
2017,05,22,00,38,13.90
2017,05,22,00,39,13.90
2017,05,22,00,40,13.90
2017,05,22,00,41,13.90
2017,05,22,00,42,13.90
2017,05,22,00,43,13.90
2017,05,22,00,44,13.90
2017,05,22,00,45,13.90
2017,05,22,00,46,13.90
2017,05,22,00,47,13.90
2017,05,22,00,48,13.90
2017,05,22,00,49,13.90
2017,05,22,00,50,13.90
2017,05,22,00,51,13.90
2017,05,22,00,52,13.90
2017,05,22,00,53,13.90
2017,05,22,00,54,13.80
2017,05,22,00,55,13.80
2017,05,22,00,56,13.80
2017,05,22,00,57,13.80
2017,05,22,00,58,13.80
2017,05,22,00,59,13.70
2017,05,22,01,00,13.70
2017,05,22,01,01,13.70
2017,05,22,01,02,13.70
2017,05,22,01,03,13.70
2017,05,22,01,04,13.70
2017,05,22,01,05,13.70
2017,05,22,01,06,13.60
2017,05,22,01,07,13.60
2017,05,22,01,08,13.60
2017,05,22,01,09,13.60
2017,05,22,01,10,13.60
2017,05,22,01,11,13.60
2017,05,22,01,12,13.60
2017,05,22,01,13,13.60
2017,05,22,01,14,13.50
2017,05,22,01,15,13.50
2017,05,22,01,16,13.50
2017,05,22,01,17,13.50
2017,05,22,01,18,13.40
2017,05,22,01,19,13.40
2017,05,22,01,20,13.40
2017,05,22,01,21,13.40
2017,05,22,01,22,13.40
2017,05,22,01,23,13.40
2017,05,22,01,24,13.40
2017,05,22,01,25,13.30
2017,05,22,01,26,13.30
2017,05,22,01,27,13.30
2017,05,22,01,28,13.30
2017,05,22,01,29,13.30
2017,05,22,01,30,13.30
2017,05,22,01,31,13.30
2017,05,22,01,32,13.30
2017,05,22,01,33,13.20
2017,05,22,01,34,13.20
2017,05,22,01,35,13.20
2017,05,22,01,36,13.20
2017,05,22,01,37,13.20
2017,05,22,01,38,13.20
2017,05,22,01,39,13.20
2017,05,22,01,40,13.10
2017,05,22,01,41,13.10
2017,05,22,01,42,13.10
2017,05,22,01,43,13.10
2017,05,22,01,44,13.10
2017,05,22,01,45,13.10
2017,05,22,01,46,13.00
2017,05,22,01,47,13.00
2017,05,22,01,48,13.00
2017,05,22,01,49,13.00
2017,05,22,01,50,13.00
2017,05,22,01,51,13.00
2017,05,22,01,52,12.90
2017,05,22,01,53,12.90
2017,05,22,01,54,12.90
2017,05,22,01,55,12.90
2017,05,22,01,56,12.90
2017,05,22,01,57,12.90
2017,05,22,01,58,12.90
2017,05,22,01,59,12.90
2017,05,22,02,00,12.90
2017,05,22,02,01,12.80
2017,05,22,02,02,12.80
2017,05,22,02,03,12.80
2017,05,22,02,04,12.80
2017,05,22,02,05,12.80
2017,05,22,02,06,12.80
2017,05,22,02,07,12.80
2017,05,22,02,08,12.80
2017,05,22,02,09,12.80
2017,05,22,02,10,12.80
2017,05,22,02,11,12.80
2017,05,22,02,12,12.70
2017,05,22,02,13,12.70
2017,05,22,02,14,12.70
2017,05,22,02,15,12.70
2017,05,22,02,16,12.70
2017,05,22,02,17,12.70
2017,05,22,02,18,12.60
2017,05,22,02,19,12.60
2017,05,22,02,20,12.60
2017,05,22,02,21,12.60
2017,05,22,02,22,12.50
2017,05,22,02,23,12.50
2017,05,22,02,24,12.50
2017,05,22,02,25,12.40
2017,05,22,02,26,12.40
2017,05,22,02,27,12.40
2017,05,22,02,28,12.40
2017,05,22,02,29,12.40
2017,05,22,02,30,12.40
2017,05,22,02,31,12.30
2017,05,22,02,32,12.30
2017,05,22,02,33,12.30
2017,05,22,02,34,12.30
2017,05,22,02,35,12.30
2017,05,22,02,36,12.30
2017,05,22,02,37,12.30
2017,05,22,02,38,12.30
2017,05,22,02,39,12.30
2017,05,22,02,40,12.30
2017,05,22,02,41,12.30
2017,05,22,02,42,12.30
2017,05,22,02,43,12.30
2017,05,22,02,44,12.30
2017,05,22,02,45,12.30
2017,05,22,02,46,12.30
2017,05,22,02,47,12.30
2017,05,22,02,48,12.30
2017,05,22,02,49,12.30
2017,05,22,02,50,12.20
2017,05,22,02,51,12.20
2017,05,22,02,52,12.20
2017,05,22,02,53,12.20
2017,05,22,02,54,12.20
2017,05,22,02,55,12.20
2017,05,22,02,56,12.20
2017,05,22,02,57,12.10
2017,05,22,02,58,12.20
2017,05,22,02,59,12.20
2017,05,22,03,00,12.20
2017,05,22,03,01,12.20
2017,05,22,03,02,12.20
2017,05,22,03,03,12.20
2017,05,22,03,04,12.20
2017,05,22,03,05,12.20
2017,05,22,03,06,12.30
2017,05,22,03,07,12.30
2017,05,22,03,08,12.30
2017,05,22,03,09,12.30
2017,05,22,03,10,12.30
2017,05,22,03,11,12.30
2017,05,22,03,12,12.30
2017,05,22,03,13,12.30
2017,05,22,03,14,12.20
2017,05,22,03,15,12.20
2017,05,22,03,16,12.20
2017,05,22,03,17,12.20
2017,05,22,03,18,12.20
2017,05,22,03,19,12.20
2017,05,22,03,20,12.20
2017,05,22,03,21,12.20
2017,05,22,03,22,12.20
2017,05,22,03,23,12.20
2017,05,22,03,24,12.20
2017,05,22,03,25,12.10
2017,05,22,03,26,12.10
2017,05,22,03,27,12.10
2017,05,22,03,28,12.10
2017,05,22,03,29,12.10
2017,05,22,03,30,12.10
2017,05,22,03,31,12.10
2017,05,22,03,32,12.10
2017,05,22,03,33,12.10
2017,05,22,03,34,12.10
2017,05,22,03,35,12.00
2017,05,22,03,36,12.00
2017,05,22,03,37,12.00
2017,05,22,03,38,11.90
2017,05,22,03,39,11.90
2017,05,22,03,40,11.90
2017,05,22,03,41,11.90
2017,05,22,03,42,11.80
2017,05,22,03,43,11.80
2017,05,22,03,44,11.80
2017,05,22,03,45,11.80
2017,05,22,03,46,11.80
2017,05,22,03,47,11.80
2017,05,22,03,48,11.80
2017,05,22,03,49,11.80
2017,05,22,03,50,11.80
2017,05,22,03,51,11.80
2017,05,22,03,52,11.70
2017,05,22,03,53,11.70
2017,05,22,03,54,11.70
2017,05,22,03,55,11.80
2017,05,22,03,56,11.80
2017,05,22,03,57,11.70
2017,05,22,03,58,11.80
2017,05,22,03,59,11.70
2017,05,22,04,00,11.70
2017,05,22,04,01,11.70
2017,05,22,04,02,11.70
2017,05,22,04,03,11.70
2017,05,22,04,04,11.70
2017,05,22,04,05,11.70
2017,05,22,04,06,11.70
2017,05,22,04,07,11.60
2017,05,22,04,08,11.60
2017,05,22,04,09,11.60
2017,05,22,04,10,11.60
2017,05,22,04,11,11.60
2017,05,22,04,12,11.60
2017,05,22,04,13,11.60
2017,05,22,04,14,11.60
2017,05,22,04,15,11.60
2017,05,22,04,16,11.60
2017,05,22,04,17,11.60
2017,05,22,04,18,11.60
2017,05,22,04,19,11.60
2017,05,22,04,20,11.60
2017,05,22,04,21,11.60
2017,05,22,04,22,11.60
2017,05,22,04,23,11.60
2017,05,22,04,24,11.60
2017,05,22,04,25,11.50
2017,05,22,04,26,11.50
2017,05,22,04,27,11.50
2017,05,22,04,28,11.50
2017,05,22,04,29,11.50
2017,05,22,04,30,11.50
2017,05,22,04,31,11.50
2017,05,22,04,32,11.50
2017,05,22,04,33,11.40
2017,05,22,04,34,11.40
2017,05,22,04,35,11.40
2017,05,22,04,36,11.40
2017,05,22,04,37,11.40
2017,05,22,04,38,11.40
2017,05,22,04,39,11.40
2017,05,22,04,40,11.40
2017,05,22,04,41,11.40
2017,05,22,04,42,11.40
2017,05,22,04,43,11.40
2017,05,22,04,44,11.40
2017,05,22,04,45,11.30
2017,05,22,04,46,11.30
2017,05,22,04,47,11.30
2017,05,22,04,48,11.30
2017,05,22,04,49,11.30
2017,05,22,04,50,11.30
2017,05,22,04,51,11.30
2017,05,22,04,52,11.30
2017,05,22,04,53,11.30
2017,05,22,04,54,11.30
2017,05,22,04,55,11.30
2017,05,22,04,56,11.30
2017,05,22,04,57,11.30
2017,05,22,04,58,11.30
2017,05,22,04,59,11.30
2017,05,22,05,00,11.20
2017,05,22,05,01,11.20
2017,05,22,05,02,11.20
2017,05,22,05,03,11.20
2017,05,22,05,04,11.20
2017,05,22,05,05,11.20
2017,05,22,05,06,11.20
2017,05,22,05,07,11.20
2017,05,22,05,08,11.20
2017,05,22,05,09,11.20
2017,05,22,05,10,11.20
2017,05,22,05,11,11.20
2017,05,22,05,12,11.20
2017,05,22,05,13,11.20
2017,05,22,05,14,11.20
2017,05,22,05,15,11.20
2017,05,22,05,16,11.20
2017,05,22,05,17,11.20
2017,05,22,05,18,11.20
2017,05,22,05,19,11.20
2017,05,22,05,20,11.20
2017,05,22,05,21,11.20
2017,05,22,05,22,11.20
2017,05,22,05,23,11.20
2017,05,22,05,24,11.20
2017,05,22,05,25,11.10
2017,05,22,05,26,11.10
2017,05,22,05,27,11.10
2017,05,22,05,28,11.10
2017,05,22,05,29,11.10
2017,05,22,05,30,11.10
2017,05,22,05,31,11.00
2017,05,22,05,32,11.00
2017,05,22,05,33,11.00
2017,05,22,05,34,10.90
2017,05,22,05,35,10.90
2017,05,22,05,36,10.90
2017,05,22,05,37,10.90
2017,05,22,05,38,10.90
2017,05,22,05,39,10.90
2017,05,22,05,40,10.90
2017,05,22,05,41,10.80
2017,05,22,05,42,10.80
2017,05,22,05,43,10.80
2017,05,22,05,44,10.80
2017,05,22,05,45,10.90
2017,05,22,05,46,10.90
2017,05,22,05,47,10.90
2017,05,22,05,48,10.90
2017,05,22,05,49,10.90
2017,05,22,05,50,10.90
2017,05,22,05,51,10.90
2017,05,22,05,52,10.90
2017,05,22,05,53,10.90
2017,05,22,05,54,10.90
2017,05,22,05,55,10.90
2017,05,22,05,56,10.90
2017,05,22,05,57,10.90
2017,05,22,05,58,10.90
2017,05,22,05,59,10.90
2017,05,22,06,00,10.90
2017,05,22,06,01,10.90
2017,05,22,06,02,10.90
2017,05,22,06,03,10.90
2017,05,22,06,04,10.90
2017,05,22,06,05,10.80
2017,05,22,06,06,10.90
2017,05,22,06,07,10.90
2017,05,22,06,08,10.90
2017,05,22,06,09,10.90
2017,05,22,06,10,10.90
2017,05,22,06,11,10.90
2017,05,22,06,12,10.90
2017,05,22,06,13,10.90
2017,05,22,06,14,10.90
2017,05,22,06,15,10.90
2017,05,22,06,16,11.00
2017,05,22,06,17,11.00
2017,05,22,06,18,11.10
2017,05,22,06,19,11.10
2017,05,22,06,20,11.20
2017,05,22,06,21,11.20
2017,05,22,06,22,11.20
2017,05,22,06,23,11.20
2017,05,22,06,24,11.30
2017,05,22,06,25,11.30
2017,05,22,06,26,11.40
2017,05,22,06,27,11.40
2017,05,22,06,28,11.40
2017,05,22,06,29,11.50
2017,05,22,06,30,11.50
2017,05,22,06,31,11.60
2017,05,22,06,32,11.60
2017,05,22,06,33,11.70
2017,05,22,06,34,11.70
2017,05,22,06,35,11.70
2017,05,22,06,36,11.80
2017,05,22,06,37,11.80
2017,05,22,06,38,11.80
2017,05,22,06,39,11.80
2017,05,22,06,40,11.90
2017,05,22,06,41,11.90
2017,05,22,06,42,11.90
2017,05,22,06,43,11.90
2017,05,22,06,44,11.90
2017,05,22,06,45,12.00
2017,05,22,06,46,12.00
2017,05,22,06,47,12.00
2017,05,22,06,48,12.00
2017,05,22,06,49,12.00
2017,05,22,06,50,12.00
2017,05,22,06,51,12.10
2017,05,22,06,52,12.10
2017,05,22,06,53,12.10
2017,05,22,06,54,12.10
2017,05,22,06,55,12.20
2017,05,22,06,56,12.20
2017,05,22,06,57,12.20
2017,05,22,06,58,12.20
2017,05,22,06,59,12.20
2017,05,22,07,00,12.30
2017,05,22,07,01,12.30
2017,05,22,07,02,12.30
2017,05,22,07,03,12.30
2017,05,22,07,04,12.30
2017,05,22,07,05,12.30
2017,05,22,07,06,12.40
2017,05,22,07,07,12.40
2017,05,22,07,08,12.40
2017,05,22,07,09,12.40
2017,05,22,07,10,12.50
2017,05,22,07,11,12.50
2017,05,22,07,12,12.50
2017,05,22,07,13,12.60
2017,05,22,07,14,12.60
2017,05,22,07,15,12.60
2017,05,22,07,16,12.70
2017,05,22,07,17,12.70
2017,05,22,07,18,12.70
2017,05,22,07,19,12.70
2017,05,22,07,20,12.80
2017,05,22,07,21,12.90
2017,05,22,07,22,12.90
2017,05,22,07,23,13.00
2017,05,22,07,24,13.10
2017,05,22,07,25,13.10
2017,05,22,07,26,13.20
2017,05,22,07,27,13.20
2017,05,22,07,28,13.30
2017,05,22,07,29,13.40
2017,05,22,07,30,13.50
2017,05,22,07,31,13.60
2017,05,22,07,32,13.70
2017,05,22,07,33,13.80
2017,05,22,07,34,13.90
2017,05,22,07,35,13.90
2017,05,22,07,36,14.00
2017,05,22,07,37,14.10
2017,05,22,07,38,14.20
2017,05,22,07,39,14.20
2017,05,22,07,40,14.30
2017,05,22,07,41,14.40
2017,05,22,07,42,14.50
2017,05,22,07,43,14.60
2017,05,22,07,44,14.70
2017,05,22,07,45,14.80
2017,05,22,07,46,14.90
2017,05,22,07,47,14.90
2017,05,22,07,48,14.90
2017,05,22,07,49,14.90
2017,05,22,07,50,15.00
2017,05,22,07,51,15.00
2017,05,22,07,52,15.20
2017,05,22,07,53,15.20
2017,05,22,07,54,15.30
2017,05,22,07,55,15.40
2017,05,22,07,56,15.50
2017,05,22,07,57,15.50
2017,05,22,07,58,15.60
2017,05,22,07,59,15.60
2017,05,22,08,00,15.70
2017,05,22,08,01,15.60
2017,05,22,08,02,15.60
2017,05,22,08,03,15.60
2017,05,22,08,04,15.70
2017,05,22,08,05,15.70
2017,05,22,08,06,15.70
2017,05,22,08,07,15.80
2017,05,22,08,08,15.90
2017,05,22,08,09,16.00
2017,05,22,08,10,16.10
2017,05,22,08,11,16.30
2017,05,22,08,12,16.40
2017,05,22,08,13,16.50
2017,05,22,08,14,16.60
2017,05,22,08,15,16.70
2017,05,22,08,16,16.70
2017,05,22,08,17,16.80
2017,05,22,08,18,16.80
2017,05,22,08,19,16.80
2017,05,22,08,20,16.90
2017,05,22,08,21,16.90
2017,05,22,08,22,17.00
2017,05,22,08,23,17.00
2017,05,22,08,24,17.00
2017,05,22,08,25,17.00
2017,05,22,08,26,17.00
2017,05,22,08,27,17.10
2017,05,22,08,28,17.10
2017,05,22,08,29,17.20
2017,05,22,08,30,17.30
2017,05,22,08,31,17.40
2017,05,22,08,32,17.40
2017,05,22,08,33,17.50
2017,05,22,08,34,17.60
2017,05,22,08,35,17.60
2017,05,22,08,36,17.70
2017,05,22,08,37,17.80
2017,05,22,08,38,17.90
2017,05,22,08,39,18.00
2017,05,22,08,40,18.10
2017,05,22,08,41,18.30
2017,05,22,08,42,18.40
2017,05,22,08,43,18.50
2017,05,22,08,44,18.60
2017,05,22,08,45,18.70
2017,05,22,08,46,18.80
2017,05,22,08,47,18.90
2017,05,22,08,48,19.00
2017,05,22,08,49,19.10
2017,05,22,08,50,19.10
2017,05,22,08,51,19.20
2017,05,22,08,52,19.30
2017,05,22,08,53,19.40
2017,05,22,08,54,19.50
2017,05,22,08,55,19.60
2017,05,22,08,56,19.70
2017,05,22,08,57,19.70
2017,05,22,08,58,19.80
2017,05,22,08,59,19.80
2017,05,22,09,00,19.80
2017,05,22,09,01,19.80
2017,05,22,09,02,19.80
2017,05,22,09,03,19.80
2017,05,22,09,04,19.80
2017,05,22,09,05,19.90
2017,05,22,09,06,20.00
2017,05,22,09,07,20.20
2017,05,22,09,08,20.30
2017,05,22,09,09,20.50
2017,05,22,09,10,20.70
2017,05,22,09,11,20.80
2017,05,22,09,12,21.00
2017,05,22,09,13,21.10
2017,05,22,09,14,21.20
2017,05,22,09,15,21.30
2017,05,22,09,16,21.40
2017,05,22,09,17,21.40
2017,05,22,09,18,21.50
2017,05,22,09,19,21.50
2017,05,22,09,20,21.50
2017,05,22,09,21,21.50
2017,05,22,09,22,21.50
2017,05,22,09,23,21.50
2017,05,22,09,24,21.50
2017,05,22,09,25,21.60
2017,05,22,09,26,21.60
2017,05,22,09,27,21.60
2017,05,22,09,28,21.60
2017,05,22,09,29,21.50
2017,05,22,09,30,21.60
2017,05,22,09,31,21.60
2017,05,22,09,32,21.50
2017,05,22,09,33,21.50
2017,05,22,09,34,21.50
2017,05,22,09,35,21.50
2017,05,22,09,36,21.50
2017,05,22,09,37,21.50
2017,05,22,09,38,21.50
2017,05,22,09,39,21.40
2017,05,22,09,40,21.40
2017,05,22,09,41,21.30
2017,05,22,09,42,21.30
2017,05,22,09,43,21.40
2017,05,22,09,44,21.40
2017,05,22,09,45,21.50
2017,05,22,09,46,21.60
2017,05,22,09,47,21.60
2017,05,22,09,48,21.60
2017,05,22,09,49,21.60
2017,05,22,09,50,21.60
2017,05,22,09,51,21.50
2017,05,22,09,52,21.40
2017,05,22,09,53,21.40
2017,05,22,09,54,21.30
2017,05,22,09,55,21.30
2017,05,22,09,56,21.30
2017,05,22,09,57,21.40
2017,05,22,09,58,21.50
2017,05,22,09,59,21.50
2017,05,22,10,00,21.50
2017,05,22,10,01,21.40
2017,05,22,10,02,21.30
2017,05,22,10,03,21.20
2017,05,22,10,04,21.20
2017,05,22,10,05,21.30
2017,05,22,10,06,21.30
2017,05,22,10,07,21.30
2017,05,22,10,08,21.30
2017,05,22,10,09,21.40
2017,05,22,10,10,21.50
2017,05,22,10,11,21.60
2017,05,22,10,12,21.60
2017,05,22,10,13,21.60
2017,05,22,10,14,21.60
2017,05,22,10,15,21.70
2017,05,22,10,16,21.80
2017,05,22,10,17,21.80
2017,05,22,10,18,21.90
2017,05,22,10,19,22.00
2017,05,22,10,20,22.00
2017,05,22,10,21,22.00
2017,05,22,10,22,22.00
2017,05,22,10,23,22.00
2017,05,22,10,24,22.00
2017,05,22,10,25,22.00
2017,05,22,10,26,21.90
2017,05,22,10,27,21.90
2017,05,22,10,28,21.90
2017,05,22,10,29,22.00
2017,05,22,10,30,22.00
2017,05,22,10,31,21.90
2017,05,22,10,32,21.90
2017,05,22,10,33,22.00
2017,05,22,10,34,22.10
2017,05,22,10,35,22.10
2017,05,22,10,36,22.20
2017,05,22,10,37,22.10
2017,05,22,10,38,22.00
2017,05,22,10,39,22.00
2017,05,22,10,40,22.00
2017,05,22,10,41,22.00
2017,05,22,10,42,22.00
2017,05,22,10,43,22.10
2017,05,22,10,44,22.20
2017,05,22,10,45,22.10
2017,05,22,10,46,22.20
2017,05,22,10,47,22.20
2017,05,22,10,48,22.30
2017,05,22,10,49,22.30
2017,05,22,10,50,22.40
2017,05,22,10,51,22.40
2017,05,22,10,52,22.30
2017,05,22,10,53,22.30
2017,05,22,10,54,22.30
2017,05,22,10,55,22.40
2017,05,22,10,56,22.50
2017,05,22,10,57,22.60
2017,05,22,10,58,22.60
2017,05,22,10,59,22.40
2017,05,22,11,00,22.30
2017,05,22,11,01,22.20
2017,05,22,11,02,22.00
2017,05,22,11,03,22.00
2017,05,22,11,04,22.00
2017,05,22,11,05,22.10
2017,05,22,11,06,22.20
2017,05,22,11,07,22.30
2017,05,22,11,08,22.30
2017,05,22,11,09,22.20
2017,05,22,11,10,22.20
2017,05,22,11,11,22.10
2017,05,22,11,12,22.10
2017,05,22,11,13,22.20
2017,05,22,11,14,22.20
2017,05,22,11,15,22.30
2017,05,22,11,16,22.30
2017,05,22,11,17,22.40
2017,05,22,11,18,22.40
2017,05,22,11,19,22.40
2017,05,22,11,20,22.40
2017,05,22,11,21,22.40
2017,05,22,11,22,22.40
2017,05,22,11,23,22.40
2017,05,22,11,24,22.50
2017,05,22,11,25,22.60
2017,05,22,11,26,22.60
2017,05,22,11,27,22.70
2017,05,22,11,28,22.70
2017,05,22,11,29,22.70
2017,05,22,11,30,22.70
2017,05,22,11,31,22.70
2017,05,22,11,32,22.80
2017,05,22,11,33,22.90
2017,05,22,11,34,23.00
2017,05,22,11,35,23.10
2017,05,22,11,36,23.20
2017,05,22,11,37,23.30
2017,05,22,11,38,23.40
2017,05,22,11,39,23.40
2017,05,22,11,40,23.50
2017,05,22,11,41,23.50
2017,05,22,11,42,23.40
2017,05,22,11,43,23.40
2017,05,22,11,44,23.30
2017,05,22,11,45,23.10
2017,05,22,11,46,23.00
2017,05,22,11,47,23.00
2017,05,22,11,48,23.00
2017,05,22,11,49,23.00
2017,05,22,11,50,23.10
2017,05,22,11,51,23.10
2017,05,22,11,52,23.20
2017,05,22,11,53,23.20
2017,05,22,11,54,23.10
2017,05,22,11,55,23.10
2017,05,22,11,56,23.00
2017,05,22,11,57,23.00
2017,05,22,11,58,23.00
2017,05,22,11,59,23.00
2017,05,22,12,00,23.00
2017,05,22,12,01,23.10
2017,05,22,12,02,23.10
2017,05,22,12,03,23.20
2017,05,22,12,04,23.30
2017,05,22,12,05,23.40
2017,05,22,12,06,23.40
2017,05,22,12,07,23.30
2017,05,22,12,08,23.20
2017,05,22,12,09,23.10
2017,05,22,12,10,23.00
2017,05,22,12,11,22.90
2017,05,22,12,12,22.90
2017,05,22,12,13,22.90
2017,05,22,12,14,22.90
2017,05,22,12,15,22.90
2017,05,22,12,16,22.90
2017,05,22,12,17,22.90
2017,05,22,12,18,22.80
2017,05,22,12,19,22.80
2017,05,22,12,20,22.80
2017,05,22,12,21,22.80
2017,05,22,12,22,22.80
2017,05,22,12,23,22.90
2017,05,22,12,24,22.90
2017,05,22,12,25,23.00
2017,05,22,12,26,23.10
2017,05,22,12,27,23.10
2017,05,22,12,28,23.10
2017,05,22,12,29,23.20
2017,05,22,12,30,23.20
2017,05,22,12,31,23.20
2017,05,22,12,32,23.30
2017,05,22,12,33,23.40
2017,05,22,12,34,23.50
2017,05,22,12,35,23.60
2017,05,22,12,36,23.70
2017,05,22,12,37,23.80
2017,05,22,12,38,23.80
2017,05,22,12,39,23.90
2017,05,22,12,40,24.00
2017,05,22,12,41,24.10
2017,05,22,12,42,24.10
2017,05,22,12,43,24.10
2017,05,22,12,44,24.20
2017,05,22,12,45,24.20
2017,05,22,12,46,24.10
2017,05,22,12,47,24.00
2017,05,22,12,48,24.00
2017,05,22,12,49,24.00
2017,05,22,12,50,24.00
2017,05,22,12,51,24.10
2017,05,22,12,52,24.10
2017,05,22,12,53,24.10
2017,05,22,12,54,24.00
2017,05,22,12,55,24.00
2017,05,22,12,56,24.10
2017,05,22,12,57,24.10
2017,05,22,12,58,24.10
2017,05,22,12,59,23.90
2017,05,22,13,00,23.70
2017,05,22,13,01,23.60
2017,05,22,13,02,23.60
2017,05,22,13,03,23.70
2017,05,22,13,04,23.70
2017,05,22,13,05,23.80
2017,05,22,13,06,23.90
2017,05,22,13,07,24.00
2017,05,22,13,08,24.00
2017,05,22,13,09,23.90
2017,05,22,13,10,23.90
2017,05,22,13,11,23.90
2017,05,22,13,12,23.80
2017,05,22,13,13,23.70
2017,05,22,13,14,23.80
2017,05,22,13,15,23.80
2017,05,22,13,16,23.90
2017,05,22,13,17,23.80
2017,05,22,13,18,23.80
2017,05,22,13,19,23.80
2017,05,22,13,20,23.80
2017,05,22,13,21,23.70
2017,05,22,13,22,23.80
2017,05,22,13,23,24.00
2017,05,22,13,24,24.20
2017,05,22,13,25,24.30
2017,05,22,13,26,24.30
2017,05,22,13,27,24.30
2017,05,22,13,28,24.30
2017,05,22,13,29,24.40
2017,05,22,13,30,24.40
2017,05,22,13,31,24.40
2017,05,22,13,32,24.40
2017,05,22,13,33,24.50
2017,05,22,13,34,24.50
2017,05,22,13,35,24.60
2017,05,22,13,36,24.70
2017,05,22,13,37,24.80
2017,05,22,13,38,24.90
2017,05,22,13,39,24.90
2017,05,22,13,40,25.00
2017,05,22,13,41,25.10
2017,05,22,13,42,25.10
2017,05,22,13,43,25.10
2017,05,22,13,44,25.00
2017,05,22,13,45,24.80
2017,05,22,13,46,24.80
2017,05,22,13,47,24.70
2017,05,22,13,48,24.70
2017,05,22,13,49,24.70
2017,05,22,13,50,24.60
2017,05,22,13,51,24.60
2017,05,22,13,52,24.70
2017,05,22,13,53,24.60
2017,05,22,13,54,24.60
2017,05,22,13,55,24.60
2017,05,22,13,56,24.60
2017,05,22,13,57,24.60
2017,05,22,13,58,24.60
2017,05,22,13,59,24.50
2017,05,22,14,00,24.40
2017,05,22,14,01,24.50
2017,05,22,14,02,24.50
2017,05,22,14,03,24.60
2017,05,22,14,04,24.70
2017,05,22,14,05,24.90
2017,05,22,14,06,25.00
2017,05,22,14,07,25.10
2017,05,22,14,08,25.10
2017,05,22,14,09,25.10
2017,05,22,14,10,25.00
2017,05,22,14,11,24.90
2017,05,22,14,12,24.80
2017,05,22,14,13,24.70
2017,05,22,14,14,24.60
2017,05,22,14,15,24.60
2017,05,22,14,16,24.60
2017,05,22,14,17,24.80
2017,05,22,14,18,24.80
2017,05,22,14,19,24.90
2017,05,22,14,20,25.00
2017,05,22,14,21,25.10
2017,05,22,14,22,25.10
2017,05,22,14,23,25.10
2017,05,22,14,24,25.10
2017,05,22,14,25,25.20
2017,05,22,14,26,25.30
2017,05,22,14,27,25.30
2017,05,22,14,28,25.40
2017,05,22,14,29,25.40
2017,05,22,14,30,25.50
2017,05,22,14,31,25.50
2017,05,22,14,32,25.60
2017,05,22,14,33,25.70
2017,05,22,14,34,25.80
2017,05,22,14,35,26.00
2017,05,22,14,36,26.10
2017,05,22,14,37,26.20
2017,05,22,14,38,26.20
2017,05,22,14,39,26.10
2017,05,22,14,40,26.00
2017,05,22,14,41,25.90
2017,05,22,14,42,25.70
2017,05,22,14,43,25.70
2017,05,22,14,44,25.70
2017,05,22,14,45,25.70
2017,05,22,14,46,25.70
2017,05,22,14,47,25.70
2017,05,22,14,48,25.60
2017,05,22,14,49,25.50
2017,05,22,14,50,25.50
2017,05,22,14,51,25.60
2017,05,22,14,52,25.60
2017,05,22,14,53,25.60
2017,05,22,14,54,25.60
2017,05,22,14,55,25.70
2017,05,22,14,56,25.80
2017,05,22,14,57,26.00
2017,05,22,14,58,26.00
2017,05,22,14,59,26.00
2017,05,22,15,00,25.90
2017,05,22,15,01,25.80
2017,05,22,15,02,25.60
2017,05,22,15,03,25.60
2017,05,22,15,04,25.60
2017,05,22,15,05,25.60
2017,05,22,15,06,25.60
2017,05,22,15,07,25.70
2017,05,22,15,08,25.70
2017,05,22,15,09,25.80
2017,05,22,15,10,25.90
2017,05,22,15,11,25.80
2017,05,22,15,12,25.80
2017,05,22,15,13,25.90
2017,05,22,15,14,25.90
2017,05,22,15,15,26.00
2017,05,22,15,16,26.10
2017,05,22,15,17,26.20
2017,05,22,15,18,26.20
2017,05,22,15,19,26.20
2017,05,22,15,20,26.10
2017,05,22,15,21,26.10
2017,05,22,15,22,26.10
2017,05,22,15,23,26.20
2017,05,22,15,24,26.40
2017,05,22,15,25,26.60
2017,05,22,15,26,26.70
2017,05,22,15,27,26.80
2017,05,22,15,28,26.80
2017,05,22,15,29,26.90
2017,05,22,15,30,26.90
2017,05,22,15,31,26.80
2017,05,22,15,32,26.70
2017,05,22,15,33,26.70
2017,05,22,15,34,26.50
2017,05,22,15,35,26.20
2017,05,22,15,36,25.90
2017,05,22,15,37,25.70
2017,05,22,15,38,25.50
2017,05,22,15,39,25.40
2017,05,22,15,40,25.40
2017,05,22,15,41,25.30
2017,05,22,15,42,25.40
2017,05,22,15,43,25.30
2017,05,22,15,44,25.20
2017,05,22,15,45,25.20
2017,05,22,15,46,25.20
2017,05,22,15,47,25.10
2017,05,22,15,48,25.00
2017,05,22,15,49,25.10
2017,05,22,15,50,25.20
2017,05,22,15,51,25.20
2017,05,22,15,52,25.30
2017,05,22,15,53,25.30
2017,05,22,15,54,25.20
2017,05,22,15,55,25.20
2017,05,22,15,56,25.10
2017,05,22,15,57,25.00
2017,05,22,15,58,25.00
2017,05,22,15,59,24.90
2017,05,22,16,00,24.80
2017,05,22,16,01,24.80
2017,05,22,16,02,24.80
2017,05,22,16,03,24.80
2017,05,22,16,04,24.80
2017,05,22,16,05,24.90
2017,05,22,16,06,25.10
2017,05,22,16,07,25.10
2017,05,22,16,08,25.10
2017,05,22,16,09,25.10
2017,05,22,16,10,25.10
2017,05,22,16,11,25.10
2017,05,22,16,12,25.00
2017,05,22,16,13,24.90
2017,05,22,16,14,24.90
2017,05,22,16,15,24.90
2017,05,22,16,16,24.90
2017,05,22,16,17,25.00
2017,05,22,16,18,25.10
2017,05,22,16,19,25.10
2017,05,22,16,20,25.20
2017,05,22,16,21,25.30
2017,05,22,16,22,25.30
2017,05,22,16,23,25.30
2017,05,22,16,24,25.20
2017,05,22,16,25,25.20
2017,05,22,16,26,25.20
2017,05,22,16,27,25.10
2017,05,22,16,28,24.90
2017,05,22,16,29,24.80
2017,05,22,16,30,24.80
2017,05,22,16,31,24.80
2017,05,22,16,32,24.80
2017,05,22,16,33,24.90
2017,05,22,16,34,25.00
2017,05,22,16,35,25.10
2017,05,22,16,36,25.20
2017,05,22,16,37,25.30
2017,05,22,16,38,25.30
2017,05,22,16,39,25.30
2017,05,22,16,40,25.30
2017,05,22,16,41,25.30
2017,05,22,16,42,25.40
2017,05,22,16,43,25.40
2017,05,22,16,44,25.50
2017,05,22,16,45,25.50
2017,05,22,16,46,25.60
2017,05,22,16,47,25.70
2017,05,22,16,48,25.80
2017,05,22,16,49,26.00
2017,05,22,16,50,26.10
2017,05,22,16,51,26.10
2017,05,22,16,52,26.10
2017,05,22,16,53,26.20
2017,05,22,16,54,26.20
2017,05,22,16,55,26.10
2017,05,22,16,56,26.10
2017,05,22,16,57,26.00
2017,05,22,16,58,25.90
2017,05,22,16,59,25.80
2017,05,22,17,00,25.80
2017,05,22,17,01,25.80
2017,05,22,17,02,25.80
2017,05,22,17,03,25.80
2017,05,22,17,04,25.80
2017,05,22,17,05,25.80
2017,05,22,17,06,25.90
2017,05,22,17,07,25.90
2017,05,22,17,08,26.00
2017,05,22,17,09,26.10
2017,05,22,17,10,26.10
2017,05,22,17,11,26.00
2017,05,22,17,12,25.90
2017,05,22,17,13,25.70
2017,05,22,17,14,25.70
2017,05,22,17,15,25.70
2017,05,22,17,16,25.70
2017,05,22,17,17,25.70
2017,05,22,17,18,25.80
2017,05,22,17,19,25.80